FW6817 Weather Reports


time (UTC)temp
F
wind
direction
speed
knots
gust
knots
rain 1hr
in
rain 24hr
in
rain mn
in
humidity
%
barometer
mb
20260504214048 76 169 0.9 4.3 0.00 0.00 0.00 38 1013.8
20260504213544 76 0 0.0 3.5 0.00 0.00 0.00 37 1013.8
20260504213058 76 240 0.9 3.5 0.00 0.00 0.00 37 1013.9
20260504212547 77 163 0.9 4.3 0.00 0.00 0.00 37 1013.8
20260504212048 77 148 0.9 4.3 0.00 0.00 0.00 38 1013.9
20260504211553 77 284 0.9 4.3 0.00 0.00 0.00 37 1013.8
20260504211049 77 213 0.9 3.5 0.00 0.00 0.00 38 1013.9
20260504210548 78 186 0.9 3.5 0.00 0.00 0.00 36 1013.9
20260504210054 78 284 0.0 3.5 0.00 0.00 0.00 39 1013.9
20260504205544 78 220 0.0 5.2 0.00 0.00 0.00 37 1014.0
20260504205047 79 266 0.9 5.2 0.00 0.00 0.00 36 1014.1
20260504204555 79 274 0.9 5.2 0.00 0.00 0.00 36 1014.0
20260504204046 79 224 0.0 5.2 0.00 0.00 0.00 38 1014.1
20260504203549 78 143 0.9 5.2 0.00 0.00 0.00 36 1014.1
20260504203104 79 261 0.9 3.5 0.00 0.00 0.00 36 1014.2
20260504202547 79 0 0.9 3.5 0.00 0.00 0.00 36 1014.3
20260504202047 80 311 0.9 6.1 0.00 0.00 0.00 36 1014.2
20260504201559 80 219 1.7 6.1 0.00 0.00 0.00 38 1014.2
20260504201047 80 329 0.0 4.3 0.00 0.00 0.00 38 1014.1
20260504200547 80 192 1.7 4.3 0.00 0.00 0.00 36 1014.2
20260504200053 80 0 0.0 4.3 0.00 0.00 0.00 36 1014.2
20260504195548 79 257 0.9 4.3 0.00 0.00 0.00 34 1014.2
20260504195046 79 279 0.9 4.3 0.00 0.00 0.00 35 1014.4
20260504194552 79 286 0.9 3.5 0.00 0.00 0.00 35 1014.5
20260504194048 79 282 0.9 4.3 0.00 0.00 0.00 36 1014.4
20260504193548 80 229 0.9 4.3 0.00 0.00 0.00 38 1014.5
20260504193054 79 243 0.0 3.5 0.00 0.00 0.00 39 1014.4
20260504192546 79 306 0.0 3.5 0.00 0.00 0.00 36 1014.5
20260504192047 79 0 0.9 3.5 0.00 0.00 0.00 38 1014.7
20260504191608 79 213 0.9 6.1 0.00 0.00 0.00 38 1014.8
20260504191047 80 213 0.9 6.1 0.00 0.00 0.00 35 1014.8
20260504190547 80 267 0.9 6.1 0.00 0.00 0.00 40 1014.8
20260504190051 79 217 0.9 5.2 0.00 0.00 0.00 39 1014.9
20260504185547 79 279 0.9 7.0 0.00 0.00 0.00 35 1015.1
20260504185046 79 61 0.9 7.0 0.00 0.00 0.00 36 1015.2
20260504184550 79 284 0.9 5.2 0.00 0.00 0.00 40 1015.2
20260504184047 79 0 0.9 4.3 0.00 0.00 0.00 36 1015.2
20260504183547 78 0 0.9 3.5 0.00 0.00 0.00 37 1015.3
20260504183047 79 0 0.9 3.5 0.00 0.00 0.00 35 1015.3
20260504182547 80 0 0.0 7.0 0.00 0.00 0.00 36 1015.3
20260504182054 78 244 0.0 7.0 0.00 0.00 0.00 35 1015.4
20260504181555 79 288 0.0 2.6 0.00 0.00 0.00 33 1015.3
20260504181048 79 152 0.0 2.6 0.00 0.00 0.00 37 1015.4
20260504180546 78 233 0.9 3.5 0.00 0.00 0.00 39 1015.4
20260504180057 78 284 0.9 4.3 0.00 0.00 0.00 34 1015.4
20260504175550 77 266 0.9 4.3 0.00 0.00 0.00 34 1015.5
20260504175049 78 192 0.9 6.1 0.00 0.00 0.00 34 1015.6
20260504174554 78 333 1.7 6.1 0.00 0.00 0.00 35 1015.5
20260504174047 78 0 0.9 4.3 0.00 0.00 0.00 35 1015.5
20260504173546 78 315 0.9 4.3 0.00 0.00 0.00 36 1015.5
20260504173055 78 347 0.0 3.5 0.00 0.00 0.00 35 1015.5
20260504172546 77 230 0.9 3.5 0.00 0.00 0.00 37 1015.5
20260504172048 76 0 0.9 3.5 0.00 0.00 0.00 38 1015.6
20260504171554 76 167 0.0 5.2 0.00 0.00 0.00 37 1015.6
20260504171048 75 0 0.9 5.2 0.00 0.00 0.00 37 1015.5
20260504170547 75 205 1.7 5.2 0.00 0.00 0.00 35 1015.8
20260504151047 67 248 0.0 2.6 0.00 0.00 0.00 62 1017.4
20260504150550 65 0 0.0 2.6 0.00 0.00 0.00 56 1017.4
20260504141047 58 284 0.0 2.6 0.00 0.00 0.00 71 1017.4
20260504140552 58 284 0.9 2.6 0.00 0.00 0.00 69 1017.3
20260504140104 57 0 0.0 2.6 0.00 0.00 0.00 72 1017.3
20260504130548 53 0 0.0 0.0 0.00 0.00 0.00 80 1017.5
20260504110549 45 0 0.0 0.0 0.00 0.00 0.00 85 1017.4
20260504100550 45 0 0.0 0.0 0.00 0.00 0.00 82 1017.2
20260504081556 48 0 0.0 0.0 0.00 0.00 0.00 76 1017.0
20260504081050 48 0 0.0 0.0 0.00 0.00 0.00 76 1016.9
20260504080550 48 0 0.0 0.0 0.00 0.00 0.00 76 1016.9
20260504050549 50 328 0.0 1.7 0.00 0.00 0.00 69 1017.0
20260504050105 50 0 0.0 1.7 0.00 0.00 0.00 68 1017.0
20260504045549 50 0 0.0 1.7 0.00 0.00 0.00 67 1017.1
20260504045048 50 0 0.0 1.7 0.00 0.00 0.00 68 1017.1
20260504044552 50 0 0.0 1.7 0.00 0.00 0.00 67 1017.1
20260504044048 51 0 0.0 0.9 0.00 0.00 0.00 66 1017.1
20260504043548 51 0 0.0 0.9 0.00 0.00 0.00 65 1017.1
20260504043055 51 0 0.0 0.0 0.00 0.00 0.00 64 1017.2
20260504042548 51 0 0.0 0.0 0.00 0.00 0.00 64 1017.1
20260504042050 51 0 0.0 0.0 0.00 0.00 0.00 63 1017.2
20260504041558 51 0 0.0 0.9 0.00 0.00 0.00 62 1017.2
20260504041046 52 0 0.0 0.9 0.00 0.00 0.00 62 1017.2
20260504040545 52 0 0.0 0.9 0.00 0.00 0.00 60 1017.2
20260504040056 52 0 0.0 0.0 0.00 0.00 0.00 59 1017.2
20260504035549 53 0 0.0 0.0 0.00 0.00 0.00 58 1017.3
20260504035049 53 0 0.0 0.0 0.00 0.00 0.00 56 1017.4
20260504034551 54 0 0.0 0.0 0.00 0.00 0.00 56 1017.3
20260504034052 55 0 0.0 0.0 0.00 0.00 0.00 56 1017.3
20260504033548 56 0 0.0 1.7 0.00 0.00 0.00 52 1017.3
20260504033052 56 0 0.0 2.6 0.00 0.00 0.00 52 1017.4
20260504032549 56 0 0.9 2.6 0.00 0.00 0.00 50 1017.4
20260504032049 56 217 0.0 1.7 0.00 0.00 0.00 50 1017.4
20260504031551 56 0 0.9 2.6 0.00 0.00 0.00 51 1017.3
20260504031048 56 219 0.9 2.6 0.00 0.00 0.00 51 1017.4
20260504030548 57 219 0.0 2.6 0.00 0.00 0.00 50 1017.4
20260504030052 57 219 0.0 2.6 0.00 0.00 0.00 50 1017.3
20260504025548 57 219 0.9 2.6 0.00 0.00 0.00 50 1017.2
20260504025045 57 219 0.9 1.7 0.00 0.00 0.00 50 1017.2
20260504024607 57 219 0.9 1.7 0.00 0.00 0.00 49 1017.2
20260504024048 57 219 0.9 1.7 0.00 0.00 0.00 50 1017.2
20260504023548 57 222 0.9 1.7 0.00 0.00 0.00 52 1017.2
20260504023053 57 222 0.9 1.7 0.00 0.00 0.00 50 1017.2
20260504022549 56 0 0.0 1.7 0.00 0.00 0.00 52 1017.0
20260504022048 55 222 0.9 1.7 0.00 0.00 0.00 55 1017.0
20260504021555 54 0 0.0 0.9 0.00 0.00 0.00 58 1017.0
20260504021048 54 0 0.0 0.9 0.00 0.00 0.00 62 1016.9
20260504020548 54 0 0.0 0.9 0.00 0.00 0.00 60 1017.0
20260504020051 54 0 0.0 0.9 0.00 0.00 0.00 58 1016.9
20260504015547 54 0 0.0 0.0 0.00 0.00 0.00 59 1016.9
20260504015047 54 0 0.0 0.0 0.00 0.00 0.00 59 1016.8
20260504014556 54 0 0.0 0.0 0.00 0.00 0.00 56 1016.9
20260504014047 54 0 0.0 0.0 0.00 0.00 0.00 59 1016.8
20260504013547 54 0 0.0 0.0 0.00 0.00 0.00 61 1016.7
20260504013056 54 0 0.0 0.0 0.00 0.00 0.00 58 1016.7
20260504012550 54 0 0.0 0.0 0.00 0.00 0.00 57 1016.6
20260504012050 54 0 0.0 0.0 0.00 0.00 0.00 56 1016.7
20260504011554 55 0 0.0 0.0 0.00 0.00 0.00 55 1016.6
20260504011047 55 0 0.0 0.0 0.00 0.00 0.00 53 1016.5
20260504010547 55 0 0.0 0.0 0.00 0.00 0.00 53 1016.5
20260504010055 55 0 0.0 0.0 0.00 0.00 0.00 53 1016.3
20260504005652 55 0 0.0 0.0 0.00 0.00 0.00 54 1016.2
20260504005047 55 0 0.0 0.0 0.00 0.00 0.00 53 1016.2
20260504004553 55 0 0.0 0.0 0.00 0.00 0.00 53 1016.1
20260504004047 55 0 0.0 0.0 0.00 0.00 0.00 54 1016.2
20260504003549 55 0 0.0 0.0 0.00 0.00 0.00 54 1016.1
20260504003055 55 0 0.0 0.0 0.00 0.00 0.00 56 1016.1
20260504002547 56 0 0.0 0.0 0.00 0.00 0.00 54 1016.0
20260504002047 56 0 0.0 0.0 0.00 0.00 0.00 55 1016.0
20260504001552 56 0 0.0 0.0 0.00 0.00 0.00 55 1016.1
20260504001048 56 0 0.0 0.0 0.00 0.00 0.00 54 1016.1
20260504000548 56 0 0.0 0.0 0.00 0.00 0.00 57 1016.0
20260504000135 57 0 0.0 0.0 0.00 0.00 0.00 58 1016.0
20260503235547 57 0 0.0 0.0 0.00 0.00 0.00 54 1016.0
20260503235049 58 0 0.0 0.0 0.00 0.00 0.00 53 1016.0
20260503234602 58 0 0.0 0.9 0.00 0.00 0.00 56 1016.0
20260503234049 59 0 0.0 1.7 0.00 0.00 0.00 53 1016.0
20260503233547 59 0 0.0 1.7 0.00 0.00 0.00 52 1015.9
20260503233052 59 0 0.0 0.9 0.00 0.00 0.00 48 1015.9
20260503232548 60 0 0.0 0.9 0.00 0.00 0.00 49 1015.9
20260503232047 60 224 0.0 1.7 0.00 0.00 0.00 47 1015.9
20260503231555 60 0 0.0 1.7 0.00 0.00 0.00 47 1015.9
20260503231047 61 224 0.0 1.7 0.00 0.00 0.00 46 1016.0
20260503230547 61 0 0.0 0.9 0.00 0.00 0.00 45 1015.9
20260503230055 62 0 0.0 2.6 0.00 0.00 0.00 41 1016.0
20260503225549 62 0 0.0 2.6 0.00 0.00 0.00 40 1016.0
20260503225048 62 294 0.9 2.6 0.00 0.00 0.00 45 1016.0
20260503224558 62 298 0.0 2.6 0.00 0.00 0.00 43 1016.0
20260503224049 62 0 0.0 0.0 0.00 0.00 0.00 40 1016.1
20260503223545 62 0 0.0 0.0 0.00 0.00 0.00 39 1016.1
20260503223053 63 0 0.0 0.9 0.00 0.00 0.00 39 1016.2
20260503222544 63 0 0.0 3.5 0.00 0.00 0.00 38 1016.2
20260503222044 63 0 0.0 3.5 0.00 0.00 0.00 37 1016.4
20260503221556 63 0 0.9 3.5 0.00 0.00 0.00 38 1016.4
20260503221049 63 297 0.9 2.6 0.00 0.00 0.00 39 1016.4
20260503220549 63 262 0.0 2.6 0.00 0.00 0.00 40 1016.4
20260503220054 63 0 0.0 2.6 0.00 0.00 0.00 37 1016.5
20260503215549 63 0 0.9 2.6 0.00 0.00 0.00 37 1016.5
20260503215045 63 280 0.0 2.6 0.00 0.00 0.00 36 1016.4
20260503214555 63 338 0.0 2.6 0.00 0.00 0.00 35 1016.6